Regional Weather Roundup
Issued by NWS Little Rock, AR

Home | Current Version | Previous Version | Graphics & Text | Print | Product List | Glossary On
Versions: 1 2 3 4 5 6 7 8 9 10 11 12 13 14 15 16 17 18 19 20 21 22 23 24 25 26 27 28 29 30 31 32 33 34 35 36 37 38 39 40 41 42 43 44 45 46 47 48 49 50
000
ASUS44 KLZK 042005
RWRLZK

WEATHER ROUNDUP FOR ARKANSAS
NATIONAL WEATHER SERVICE LITTLE ROCK AR
300 PM CDT MON MAY 04 2015

NOTE: "FAIR" INDICATES FEW OR NO CLOUDS BELOW 12,000 FEET WITH NO
SIGNIFICANT WEATHER AND/OR OBSTRUCTIONS TO VISIBILITY.

ARZ001-003-010-029-042100-
NORTHWEST ARKANSAS

CITY           SKY/WX    TMP DP  RH WIND       PRES   REMARKS
FAYETTEVILLE   PTSUNNY   76  60  57 MISG      30.12F
FORT SMITH     MOSUNNY   83  56  39 S10       30.10F
HARRISON       MOSUNNY   80  56  43 S14       30.14F
BENTONVILLE    PTSUNNY   79  57  47 S10       30.13F
ROGERS         CLOUDY    80  59  48 S14       30.13F
SILOAM SPGS    PTSUNNY   79  57  47 S15       30.13F
HIGHFILL       MOSUNNY   79  59  50 S15       30.12F
SPRINGDALE     PTSUNNY   79  55  44 S14       30.14F
$$

ARZ004-005-016-042100-
NORTH CENTRAL ARKANSAS

CITY           SKY/WX    TMP DP  RH WIND       PRES   REMARKS
BATESVILLE     SUNNY     82  55  39 S13       30.14F
FLIPPIN        MOSUNNY   82  54  36 S8        30.11S
MTN HOME       PTSUNNY   79  55  43 S9        30.12F
$$

ARZ040-041-042100-
WEST CENTRAL ARKANSAS

CITY           SKY/WX    TMP DP  RH WIND       PRES   REMARKS
MENA           MOSUNNY   79  55  44 S5        30.15F
MOUNT IDA      PTSUNNY   80  56  43 VRB6      30.13F
$$

ARZ009-017-025-026-028-042100-
NORTHEAST ARKANSAS

CITY           SKY/WX    TMP DP  RH WIND       PRES   REMARKS
CORNING          N/A    N/A N/A N/A MISG        N/A
JONESBORO      SUNNY     82  57  42 SW13      30.15F
NEWPORT        PTSUNNY   84  57  39 S8G20     30.16F
WALNUT RIDGE   MOSUNNY   84  55  37 S18       30.14S
BLYTHEVILLE    SUNNY     85  56  37 S16       30.17F
NW BLYTHEVILLE MOSUNNY   84  54  34 S9G21     30.16F
$$

ARZ022-023-033-042-044-042100-
CENTRAL ARKANSAS

CITY           SKY/WX    TMP DP  RH WIND       PRES   REMARKS
LITTLE ROCK    PTSUNNY   80  55  42 SE12      30.15F
N LITTLE ROCK  PTSUNNY   80  60  49 S5        30.15F
JACKSONVILLE   MOSUNNY   84  56  39 S7G16     30.14F
SEARCY         MOSUNNY   83  60  45 SE7       30.16F
HOT SPRINGS    MOSUNNY   81  56  42 S8        30.15F
RUSSELLVILLE   MOSUNNY   80  54  40 VRB6G17   30.12F
CLINTON        FAIR      81  59  47 S8        30.14F
$$

ARZ036-042100-
EAST ARKANSAS

CITY           SKY/WX    TMP DP  RH WIND       PRES   REMARKS
WEST MEMPHIS   MOSUNNY   82  55  39 SE13      30.16F
$$

ARZ050-053-066-070-073-042100-
SOUTHWEST ARKANSAS

CITY           SKY/WX    TMP DP  RH WIND       PRES   REMARKS
ARKADELPHIA    FAIR      81  61  50 CALM      30.14F
CAMDEN         MOSUNNY   84  55  37 CALM      30.14F
TEXARKANA      PTSUNNY   82  57  42 S12       30.13F
EL DORADO      MOSUNNY   81  57  43 SE9G17    30.14F
DE QUEEN       MOSUNNY   80  57  45 S10       30.11F
$$

ARZ056-057-069-042100-
SOUTHEAST ARKANSAS

CITY           SKY/WX    TMP DP  RH WIND       PRES   REMARKS
PINE BLUFF     MOSUNNY   82  57  42 S9        30.15F
STUTTGART      MOSUNNY   82  55  39 SE13      30.16F
MONTICELLO     MOSUNNY   83  53  35 E8        30.15F

$$




USA.gov is the U.S. government's official web portal to all federal, state and local government web resources and services.